DW8004 Weather Reports


Display with metric or nautical units.
time (UTC)temp
F
wind
direction
speed
MPH
gust
MPH
rain 1hr
in
rain 24hr
in
rain mn
in
humidity
%
barometer
mb
20260905123009 60 235 0.0 0.0 0.00 0.00 0.00 92 1010.1
20260905121548 59 94 0.0 0.0 0.00 0.00 0.00 95 1010.0
20260905120045 56 94 0.0 0.0 0.00 0.00 0.00 97 1009.8
20260905114511 54 94 0.0 0.0 0.00 0.00 0.00 98 1009.7
20260905113054 52 93 0.0 0.0 0.00 0.00 0.00 98 1009.5
20260905111532 51 93 0.0 0.0 0.00 0.00 0.00 97 1009.5
20260905104549 50 93 0.0 0.0 0.00 0.00 0.00 97 1009.4
20260905103032 50 93 0.0 0.0 0.00 0.00 0.00 97 1009.2
20260905101612 50 93 0.0 0.0 0.00 0.00 0.00 97 1009.1
20260905100055 50 93 0.0 0.0 0.00 0.00 0.00 97 1009.1
20260905094606 50 93 0.0 0.0 0.00 0.00 0.00 97 1008.9
20260905093043 51 93 0.0 0.0 0.00 0.00 0.00 97 1009.0
20260905091526 51 94 0.0 0.0 0.00 0.00 0.00 97 1009.0
20260905090104 51 93 0.0 0.0 0.00 0.00 0.00 97 1009.0
20260905084611 52 93 0.0 0.0 0.00 0.00 0.00 97 1008.9
20260905083044 52 93 0.0 0.0 0.00 0.00 0.00 97 1008.9
20260905081527 52 93 0.0 0.0 0.00 0.00 0.00 97 1008.9
20260905080002 52 93 0.0 0.0 0.00 0.00 0.00 96 1008.8
20260905074554 52 93 0.0 0.0 0.00 0.00 0.00 96 1008.9
20260905073102 53 93 0.0 0.0 0.00 0.00 0.00 96 1009.1
20260905071559 53 93 0.0 0.0 0.00 0.00 0.00 96 1009.2
20260905070043 53 93 0.0 0.0 0.00 0.00 0.00 96 1009.2
20260905064530 54 93 0.0 0.0 0.00 0.00 0.00 96 1009.3
20260905063006 54 93 0.0 0.0 0.00 0.00 0.00 96 1009.1
20260905061614 54 93 0.0 0.0 0.00 0.00 0.00 96 1009.2
20260905060042 54 93 0.0 0.0 0.00 0.00 0.00 96 1009.2
20260905054559 55 93 0.0 0.0 0.00 0.00 0.00 96 1009.3
20260905053054 55 93 0.0 0.0 0.00 0.00 0.00 95 1009.3
20260905051552 55 93 0.0 0.0 0.00 0.00 0.00 95 1009.5
20260905050044 55 93 0.0 0.0 0.00 0.00 0.00 95 1009.5
20260905044536 56 93 0.0 0.0 0.00 0.00 0.00 95 1009.4
20260905043118 56 93 0.0 0.0 0.00 0.00 0.00 95 1009.7
20260905041546 56 93 0.0 0.0 0.00 0.00 0.00 95 1009.6
20260905040140 56 93 0.0 0.0 0.00 0.00 0.00 95 1009.4
20260905034526 57 93 0.0 0.0 0.00 0.00 0.00 94 1009.4
20260905033007 57 93 0.0 0.0 0.00 0.00 0.00 94 1009.7
20260905031529 57 93 0.0 0.0 0.00 0.00 0.00 94 1009.7
20260905030033 57 93 0.0 0.0 0.00 0.00 0.00 94 1009.6
20260905024504 58 93 0.0 0.0 0.00 0.00 0.00 93 1009.4
20260905023113 59 93 0.0 0.0 0.00 0.00 0.00 92 1009.7
20260905021554 59 93 0.0 0.0 0.00 0.00 0.00 92 1009.7
20260905020059 60 93 0.0 0.0 0.00 0.00 0.00 91 1009.9
20260905014552 60 93 0.0 0.0 0.00 0.00 0.00 91 1009.9
20260905013058 61 93 0.0 0.0 0.00 0.00 0.00 91 1009.9
20260905011538 61 93 0.0 0.0 0.00 0.00 0.00 90 1009.6
20260905010051 62 91 0.0 0.0 0.00 0.00 0.00 89 1009.5
20260905004547 62 95 0.0 0.0 0.00 0.00 0.00 90 1009.4
20260905003101 62 95 0.0 0.0 0.00 0.00 0.00 90 1009.3
20260905001555 62 95 0.0 0.0 0.00 0.00 0.00 89 1009.5
20260905000051 62 95 0.0 0.0 0.00 0.00 0.00 88 1009.4
20260904234550 63 95 0.0 0.0 0.00 0.00 0.00 88 1009.3
20260904233037 64 95 0.0 0.0 0.00 0.00 0.00 86 1009.1
20260904231543 64 95 0.0 0.0 0.00 0.00 0.00 84 1008.9
20260904230033 65 95 0.0 0.0 0.00 0.00 0.00 82 1008.9
20260904224538 67 95 0.0 0.0 0.00 0.00 0.00 79 1008.8
20260904223133 69 94 0.0 0.0 0.00 0.00 0.00 76 1008.7
20260904221527 70 218 0.0 0.0 0.00 0.00 0.00 72 1008.6
20260904220117 72 329 0.0 0.0 0.00 0.00 0.00 67 1008.5
20260904214554 73 208 0.0 0.0 0.00 0.00 0.00 65 1008.6
20260904213047 72 238 0.0 0.0 0.00 0.00 0.00 63 1008.8
20260904211545 72 224 0.0 0.0 0.00 0.00 0.00 65 1008.7
20260904210049 74 197 0.0 0.0 0.00 0.00 0.00 62 1008.7
20260904204540 73 190 0.0 0.0 0.00 0.00 0.00 64 1008.8
20260904203054 73 13 0.0 0.0 0.00 0.00 0.00 63 1008.7
20260904201546 72 240 0.0 0.0 0.00 0.00 0.00 65 1008.8
20260904200014 72 246 0.0 0.0 0.00 0.00 0.00 64 1008.6
20260904194536 74 211 0.0 0.0 0.00 0.00 0.00 63 1009.0
20260904193047 73 208 0.0 0.0 0.00 0.00 0.00 64 1009.0
20260904191549 72 298 0.0 0.0 0.00 0.00 0.00 68 1009.2
20260904190017 72 220 0.0 0.0 0.00 0.00 0.00 67 1009.1
20260904184549 74 226 0.0 0.0 0.00 0.00 0.00 64 1009.3
20260904183017 74 219 0.0 0.0 0.00 0.00 0.00 64 1009.3
20260904181553 73 213 0.0 0.0 0.00 0.00 0.00 67 1009.5
20260904180109 72 232 0.0 0.0 0.00 0.00 0.00 65 1009.7
20260904174613 73 254 0.0 0.0 0.00 0.00 0.00 65 1009.5
20260904173038 73 216 0.0 0.0 0.00 0.00 0.00 65 1009.5
20260904171526 72 157 0.0 0.0 0.00 0.00 0.00 66 1009.7
20260904170014 73 84 0.0 0.0 0.00 0.00 0.00 66 1009.9
20260904164502 73 263 0.0 0.0 0.00 0.00 0.00 65 1009.8
20260904163026 73 180 0.0 0.0 0.00 0.00 0.00 64 1009.8
20260904161530 72 301 0.0 0.0 0.00 0.00 0.00 65 1010.0
20260904160054 71 206 0.0 0.0 0.00 0.00 0.00 67 1010.0
20260904154550 71 257 0.0 0.0 0.00 0.00 0.00 68 1010.3
20260904153050 71 223 0.0 0.0 0.00 0.00 0.00 69 1010.1
20260904151540 70 219 0.0 0.0 0.00 0.00 0.00 72 1010.3
20260904150051 70 66 0.0 0.0 0.00 0.00 0.00 73 1010.5
20260904144632 70 236 0.0 0.0 0.00 0.00 0.00 72 1010.3
20260904143102 70 205 0.0 0.0 0.00 0.00 0.00 74 1010.4
20260904141555 69 153 0.0 0.0 0.00 0.00 0.00 77 1010.5
20260904140058 68 215 0.0 0.0 0.00 0.00 0.00 82 1010.5
20260904134549 67 232 0.0 0.0 0.00 0.00 0.00 83 1010.5
20260904133038 67 252 0.0 0.0 0.00 0.00 0.00 84 1010.8
20260904131540 66 213 0.0 0.0 0.00 0.00 0.00 86 1010.7
20260904130046 66 9 0.0 0.0 0.00 0.00 0.00 90 1010.7
20260904124535 65 207 0.0 0.0 0.00 0.00 0.00 94 1010.6